Погода в Заливском

Россия / Волгоградская область     47°58′43″N   43°27′33″E
темп.,
°C
ветер,
м/с
пор.,
м/с
влажн.,
%
обл.,
%
осадки,
мм/ч
давл.,
гПа
погр.,
м
9 мая, вс
вс900:00+19ю71458100 0.0 1010413
03:00+14ююв61256100 0.0 1009271
06:00+14ю61357100 0.0 1009446
09:00+16ююз6661100 0.0 1009545
12:00+17зюз1268100 0.1 1009457
15:00+10ссз81088100 0.8 1010409
18:00+8сз101490100 5.7 1013768
21:00+8сз91389100 7.9 1014916
10 мая, пн
пн1000:00+7сз71189100 3.6 1016958
03:00+6сз91286100 5.8 10141021
06:00+6сз81187100 0.7 1015901
09:00+6зсз81091100 1.2 1015940
12:00+6зсз81090100 0.3 1014795
15:00+7з6990100 0.4 1013854
18:00+7юз6991100 0.3 1012697
21:00+6ю7993100 0.8 1011656
11 мая, вт
вт1100:00+6ююв6892100 0.4 1012918
03:00+6ююв71090100 1.4 1012964
06:00+7ююв91391100 1.3 10141120
09:00+7ююв91691100 3.1 10171077
12:00+13юв101557100 0.2 10181963
15:00+13юв7126199 0.9 1020847
18:00+13ююв356597 0.5 1021165
21:00+10всв337574 0.5 102125
12 мая, ср
ср1200:00+8в237684 0.0 102132
03:00+8в48788 0.0 1020136
06:00+9в497899 0.0 1021212
09:00+15вюв455899 0.0 1020521
12:00+18в33445 0.0 10201348
15:00+20в334061 0.0 10191513
18:00+19в234931 0.0 101996
21:00+15в115683 0.0 101811
13 мая, чт
чт1300:00+13ссв226518 0.0 101813
03:00+13св22840 0.0 101814
06:00+14в23830 0.0 101871
09:00+20юв34570 0.0 1018742
12:00+23юв34444 0.0 10181534
15:00+25юв44393 0.0 10171701
18:00+23вюв36525 0.0 1017158
21:00+19в456721 0.0 101873